Tracking 31027 objects as of 19-Jul-2025
HD Live streaming from Space Station
objects crossing your sky now

THORAD AGENA D DEB

Track THORAD AGENA D DEB now!
10-day predictions


NORAD ID: 22533
Int'l Code: 1970-025QP
Perigee: 999.4 km
Apogee: 1,005.1 km
Inclination: 100.1 °
Period: 105.0 minutes
Semi major axis: 7373 km
RCS: 0.0131 m2 (small)
Launch date: April 8, 1970
Source: United States (US)
Launch site: AIR FORCE WESTERN TEST RANGE (AFWTR)

Note: This is SATELLITE DEBRIS
Your satellite tracking list
COSMOS 1408 DEB
Track 1 satellite(s)




NASA's NSSDC Master Catalog

Two Line Element Set (TLE):
1 22533U 70025QP  25199.90116017  .00001043  00000-0  12174-2 0  9995
2 22533 100.0830   2.0834 0003838  30.1187 127.1234 13.71242314607964
Source of the keplerian elements: AFSPC